Time,TemperatureF,DewpointF,PressureIn,WindDirection,WindDirectionDegrees,WindSpeedMPH,WindSpeedGustMPH,Humidity,HourlyPrecipIn,Conditions,Clouds,dailyrainin,SoftwareType,DateUTC
2013-09-13 00:01:00,61.5,29.8,28.42,NW,315,1.2,0.0,30,0.00,RA,SKC,0.00,WeatherDisplay:10.37,2013-09-13 04:01:00,
2013-09-13 00:02:00,61.5,29.8,28.42,NW,315,1.2,0.0,30,0.00,RA,SKC,0.00,WeatherDisplay:10.37,2013-09-13 04:02:00,
2013-09-13 00:04:00,61.5,29.8,28.42,NW,315,1.2,0.0,30,0.00,RA,SKC,0.00,WeatherDisplay:10.37,2013-09-13 04:04:00,
2013-09-13 00:07:00,61.5,29.8,28.42,NW,315,1.2,0.0,30,0.00,RA,SKC,0.00,WeatherDisplay:10.37,2013-09-13 04:07:00,
2013-09-13 00:11:00,61.3,29.6,28.42,NW,315,0.0,0.0,30,0.00,CLR,SKC,0.00,WeatherDisplay:10.37,2013-09-13 04:11:00,
2013-09-13 00:16:00,61.2,29.5,28.42,North,0,0.0,0.0,30,0.00,CLR,SKC,0.00,WeatherDisplay:10.37,2013-09-13 04:16:00,
2013-09-13 00:21:00,61.2,29.5,28.42,North,0,0.0,0.0,30,0.00,CLR,SKC,0.00,WeatherDisplay:10.37,2013-09-13 04:21:00,
2013-09-13 00:26:00,61.2,29.5,28.42,North,0,0.0,0.0,30,0.00,CLR,SKC,0.00,WeatherDisplay:10.37,2013-09-13 04:26:00,
2013-09-13 00:31:00,61.2,29.5,28.42,NW,315,3.5,3.5,30,0.00,CLR,SKC,0.00,WeatherDisplay:10.37,2013-09-13 04:31:00,
2013-09-13 00:36:00,61.3,29.6,28.43,NNE,14,1.2,0.0,30,0.00,CLR,SKC,0.00,WeatherDisplay:10.37,2013-09-13 04:36:00,
2013-09-13 00:41:00,61.3,29.6,28.42,NNE,14,2.3,2.3,30,0.00,CLR,SKC,0.00,WeatherDisplay:10.37,2013-09-13 04:41:00,
2013-09-13 00:46:00,61.7,29.9,28.43,NW,315,4.6,4.6,30,0.00,CLR,SKC,0.00,WeatherDisplay:10.37,2013-09-13 04:46:00,
2013-09-13 00:51:00,61.9,30.1,28.43,NNE,14,5.8,5.8,30,0.00,CLR,SKC,0.00,WeatherDisplay:10.37,2013-09-13 04:51:00,
2013-09-13 00:56:00,62.1,30.2,28.43,NW,315,4.6,4.6,30,0.00,CLR,SKC,0.00,WeatherDisplay:10.37,2013-09-13 04:56:00,
2013-09-13 01:01:00,62.1,30.2,28.43,NW,315,3.5,3.5,30,0.00,CLR,SKC,0.00,WeatherDisplay:10.37,2013-09-13 05:01:00,
2013-09-13 01:06:00,62.1,30.2,28.43,NW,315,3.5,3.5,30,0.00,CLR,SKC,0.00,WeatherDisplay:10.37,2013-09-13 05:06:00,
2013-09-13 01:11:00,62.1,30.2,28.43,NW,315,4.6,4.6,30,0.00,CLR,SKC,0.00,WeatherDisplay:10.37,2013-09-13 05:11:00,
2013-09-13 01:16:00,62.1,30.2,28.43,NW,315,5.8,5.8,30,0.00,CLR,SKC,0.00,WeatherDisplay:10.37,2013-09-13 05:16:00,
2013-09-13 01:21:00,62.1,30.2,28.43,NW,315,16.1,16.1,30,0.00,CLR,SKC,0.00,WeatherDisplay:10.37,2013-09-13 05:21:00,
2013-09-13 01:26:00,61.9,30.1,28.43,West,270,12.7,12.7,30,0.00,CLR,SKC,0.00,WeatherDisplay:10.37,2013-09-13 05:26:00,
2013-09-13 01:31:00,61.7,29.9,28.43,NW,315,15.0,15.0,30,0.00,CLR,SKC,0.00,WeatherDisplay:10.37,2013-09-13 05:31:00,
2013-09-13 01:36:00,61.7,29.9,28.43,NW,315,10.4,10.4,30,0.00,CLR,SKC,0.00,WeatherDisplay:10.37,2013-09-13 05:36:00,
2013-09-13 01:41:00,61.5,29.8,28.43,NW,315,16.1,16.1,30,0.00,CLR,SKC,0.00,WeatherDisplay:10.37,2013-09-13 05:41:00,
2013-09-13 01:46:00,61.2,29.5,28.43,NW,315,9.2,9.2,30,0.01,RA,SKC,0.01,WeatherDisplay:10.37,2013-09-13 05:46:00,
2013-09-13 01:51:00,60.8,29.1,28.43,West,270,16.1,16.1,30,0.01,RA,SKC,0.01,WeatherDisplay:10.37,2013-09-13 05:51:00,
2013-09-13 01:56:00,60.6,29.0,28.43,NW,315,10.4,10.4,30,0.01,CLR,SKC,0.01,WeatherDisplay:10.37,2013-09-13 05:56:00,
2013-09-13 02:01:00,60.4,28.8,28.43,NW,315,10.4,10.4,30,0.01,CLR,SKC,0.01,WeatherDisplay:10.37,2013-09-13 06:01:00,
2013-09-13 02:06:00,60.4,28.8,28.43,NW,315,5.8,5.8,30,0.01,CLR,SKC,0.01,WeatherDisplay:10.37,2013-09-13 06:06:00,
2013-09-13 02:11:00,60.1,28.5,28.43,NW,315,8.1,8.1,30,0.01,CLR,SKC,0.01,WeatherDisplay:10.37,2013-09-13 06:11:00,
2013-09-13 02:16:00,60.1,28.5,28.43,NW,315,6.9,6.9,30,0.01,CLR,SKC,0.01,WeatherDisplay:10.37,2013-09-13 06:16:00,
2013-09-13 02:21:00,59.9,28.4,28.43,North,0,6.9,6.9,30,0.01,CLR,SKC,0.01,WeatherDisplay:10.37,2013-09-13 06:21:00,
2013-09-13 02:26:00,59.7,28.2,28.43,NW,315,8.1,8.1,30,0.01,CLR,SKC,0.01,WeatherDisplay:10.37,2013-09-13 06:26:00,
2013-09-13 02:31:00,59.5,28.0,28.43,NW,315,5.8,5.8,30,0.01,CLR,SKC,0.01,WeatherDisplay:10.37,2013-09-13 06:31:00,
2013-09-13 02:36:00,59.4,27.9,28.43,North,0,6.9,6.9,30,0.01,CLR,SKC,0.01,WeatherDisplay:10.37,2013-09-13 06:36:00,
2013-09-13 02:41:00,59.4,27.9,28.43,NW,315,3.5,3.5,30,0.01,CLR,SKC,0.01,WeatherDisplay:10.37,2013-09-13 06:41:00,
2013-09-13 02:46:00,59.2,27.7,28.42,NW,315,3.5,3.5,30,0.00,CLR,SKC,0.01,WeatherDisplay:10.37,2013-09-13 06:46:00,
2013-09-13 02:51:00,59.2,27.7,28.43,NW,315,5.8,5.8,30,0.00,CLR,SKC,0.01,WeatherDisplay:10.37,2013-09-13 06:51:00,
2013-09-13 02:56:00,59.0,27.6,28.42,NE,45,5.8,5.8,30,0.01,RA,SKC,0.02,WeatherDisplay:10.37,2013-09-13 06:56:00,
2013-09-13 03:01:00,58.8,27.4,28.42,NW,315,4.6,4.6,30,0.01,RA,SKC,0.02,WeatherDisplay:10.37,2013-09-13 07:01:00,
2013-09-13 03:06:00,58.8,27.4,28.42,NW,315,3.5,3.5,30,0.01,,SKC,0.02,WeatherDisplay:10.37,2013-09-13 07:06:00,
2013-09-13 03:11:00,58.5,27.1,28.41,North,0,3.5,3.5,30,0.01,CLR,SKC,0.02,WeatherDisplay:10.37,2013-09-13 07:11:00,
2013-09-13 03:16:00,58.5,27.1,28.42,North,0,4.6,4.6,30,0.01,CLR,SKC,0.02,WeatherDisplay:10.37,2013-09-13 07:16:00,
2013-09-13 03:21:00,58.3,26.9,28.42,North,0,8.1,8.1,30,0.01,CLR,SKC,0.02,WeatherDisplay:10.37,2013-09-13 07:21:00,
2013-09-13 03:26:00,58.3,26.9,28.41,NW,315,4.6,4.6,30,0.01,CLR,SKC,0.02,WeatherDisplay:10.37,2013-09-13 07:26:00,
2013-09-13 03:31:00,58.1,26.8,28.41,North,0,3.5,3.5,30,0.01,CLR,SKC,0.02,WeatherDisplay:10.37,2013-09-13 07:31:00,
2013-09-13 03:36:00,57.9,26.6,28.41,North,0,4.6,4.6,30,0.01,CLR,SKC,0.02,WeatherDisplay:10.37,2013-09-13 07:36:00,
2013-09-13 03:41:00,57.9,26.6,28.40,North,0,2.3,2.3,30,0.01,CLR,SKC,0.02,WeatherDisplay:10.37,2013-09-13 07:41:00,
2013-09-13 03:46:00,57.7,26.5,28.40,NW,315,3.5,3.5,30,0.01,CLR,SKC,0.02,WeatherDisplay:10.37,2013-09-13 07:46:00,
2013-09-13 03:51:00,57.7,26.5,28.40,NW,315,0.0,0.0,30,0.01,CLR,SKC,0.02,WeatherDisplay:10.37,2013-09-13 07:51:00,
2013-09-13 03:56:00,57.6,26.3,28.40,NE,45,0.0,0.0,30,0.00,CLR,SKC,0.02,WeatherDisplay:10.37,2013-09-13 07:56:00,
2013-09-13 04:01:00,57.6,26.3,28.40,NE,45,0.0,0.0,30,0.00,CLR,SKC,0.02,WeatherDisplay:10.37,2013-09-13 08:01:00,
2013-09-13 04:06:00,57.6,26.3,28.39,NE,45,0.0,0.0,30,0.00,CLR,SKC,0.02,WeatherDisplay:10.37,2013-09-13 08:06:00,
2013-09-13 04:11:00,57.4,26.2,28.40,NE,45,0.0,0.0,30,0.00,CLR,SKC,0.02,WeatherDisplay:10.37,2013-09-13 08:11:00,
2013-09-13 04:16:00,57.7,26.5,28.40,ESE,112,0.0,0.0,30,0.00,CLR,SKC,0.02,WeatherDisplay:10.37,2013-09-13 08:16:00,
2013-09-13 04:21:00,57.4,26.2,28.40,ESE,112,0.0,0.0,30,0.00,CLR,SKC,0.02,WeatherDisplay:10.37,2013-09-13 08:21:00,
2013-09-13 04:32:00,57.4,26.2,28.40,North,0,0.0,0.0,30,0.00,CLR,SKC,0.02,WeatherDisplay:10.37,2013-09-13 08:32:00,
2013-09-13 04:37:00,57.4,26.2,28.41,NW,315,0.0,0.0,30,0.00,CLR,SKC,0.02,WeatherDisplay:10.37,2013-09-13 08:37:00,
2013-09-13 04:42:00,57.2,26.0,28.41,NW,315,0.0,0.0,30,0.00,CLR,SKC,0.02,WeatherDisplay:10.37,2013-09-13 08:42:00,
2013-09-13 04:47:00,57.4,26.2,28.41,NW,315,3.5,3.5,30,0.00,CLR,SKC,0.02,WeatherDisplay:10.37,2013-09-13 08:47:00,
2013-09-13 04:52:00,57.4,26.2,28.41,NW,315,6.9,6.9,30,0.00,CLR,SKC,0.02,WeatherDisplay:10.37,2013-09-13 08:52:00,
2013-09-13 04:57:00,57.2,26.0,28.41,NW,315,3.8,3.8,30,0.00,CLR,SKC,0.02,WeatherDisplay:10.37,2013-09-13 08:57:00,
2013-09-13 05:12:00,57.0,25.9,28.41,NW,315,4.6,4.6,30,0.00,CLR,SKC,0.02,WeatherDisplay:10.37,2013-09-13 09:12:00,
2013-09-13 05:17:00,57.2,26.0,28.41,NNE,14,4.6,0.0,30,0.00,CLR,SKC,0.02,WeatherDisplay:10.37,2013-09-13 09:17:00,
2013-09-13 05:22:00,57.2,26.0,28.42,NW,315,0.0,0.7,30,0.00,CLR,SKC,0.02,WeatherDisplay:10.37,2013-09-13 09:22:00,
2013-09-13 05:27:00,57.2,26.0,28.42,South,180,3.5,0.0,30,0.00,CLR,SKC,0.02,WeatherDisplay:10.37,2013-09-13 09:27:00,
2013-09-13 05:32:00,57.0,25.9,28.42,North,5,0.0,0.0,30,0.00,CLR,SKC,0.02,WeatherDisplay:10.37,2013-09-13 09:32:00,
2013-09-13 05:37:00,57.0,25.9,28.42,SE,135,0.0,0.0,30,0.00,CLR,SKC,0.02,WeatherDisplay:10.37,2013-09-13 09:37:00,
2013-09-13 05:42:00,56.8,25.7,28.42,SE,135,0.0,0.0,30,0.00,CLR,SKC,0.02,WeatherDisplay:10.37,2013-09-13 09:42:00,
2013-09-13 05:47:00,56.8,25.7,28.42,North,0,1.2,0.0,30,0.00,CLR,SKC,0.02,WeatherDisplay:10.37,2013-09-13 09:47:00,
2013-09-13 05:52:00,56.7,25.5,28.42,North,0,0.0,0.0,30,0.00,CLR,SKC,0.02,WeatherDisplay:10.37,2013-09-13 09:52:00,
2013-09-13 05:57:00,56.5,25.4,28.42,North,0,0.0,0.0,30,0.00,CLR,SKC,0.02,WeatherDisplay:10.37,2013-09-13 09:57:00,
2013-09-13 06:02:00,56.7,25.5,28.42,North,0,4.6,4.6,30,0.00,CLR,SKC,0.02,WeatherDisplay:10.37,2013-09-13 10:02:00,
2013-09-13 06:07:00,56.8,25.7,28.42,North,0,4.6,0.0,30,0.00,CLR,SKC,0.02,WeatherDisplay:10.37,2013-09-13 10:07:00,
2013-09-13 06:12:00,56.8,25.7,28.42,North,0,0.0,1.6,30,0.00,CLR,SKC,0.02,WeatherDisplay:10.37,2013-09-13 10:12:00,
2013-09-13 06:17:00,56.8,25.7,28.42,North,0,1.2,0.0,30,0.00,CLR,SKC,0.02,WeatherDisplay:10.37,2013-09-13 10:17:00,
2013-09-13 06:22:00,56.8,25.7,28.43,NNE,15,6.9,0.0,30,0.00,CLR,SKC,0.02,WeatherDisplay:10.37,2013-09-13 10:22:00,
2013-09-13 06:27:00,57.0,25.9,28.43,North,8,1.2,3.1,30,0.00,CLR,SKC,0.02,WeatherDisplay:10.37,2013-09-13 10:27:00,
2013-09-13 06:32:00,57.0,25.9,28.43,NW,315,0.0,0.0,30,0.00,CLR,SKC,0.02,WeatherDisplay:10.37,2013-09-13 10:32:00,
2013-09-13 06:37:00,57.0,25.9,28.43,North,1,4.6,4.6,30,0.00,CLR,SKC,0.02,WeatherDisplay:10.37,2013-09-13 10:37:00,
2013-09-13 06:42:00,57.0,25.9,28.43,North,0,4.6,4.6,30,0.00,CLR,SKC,0.02,WeatherDisplay:10.37,2013-09-13 10:42:00,
2013-09-13 06:47:00,57.0,25.9,28.43,NNE,14,3.5,3.5,30,0.00,CLR,SKC,0.02,WeatherDisplay:10.37,2013-09-13 10:47:00,
2013-09-13 06:52:00,57.0,25.9,28.43,North,0,3.5,3.5,30,0.00,CLR,SKC,0.02,WeatherDisplay:10.37,2013-09-13 10:52:00,
2013-09-13 06:57:00,57.0,25.9,28.43,NNE,16,4.6,4.6,30,0.00,CLR,SKC,0.02,WeatherDisplay:10.37,2013-09-13 10:57:00,
2013-09-13 07:02:00,57.2,26.0,28.43,North,0,2.3,2.3,30,0.00,CLR,SKC,0.02,WeatherDisplay:10.37,2013-09-13 11:02:00,
2013-09-13 07:07:00,57.2,26.0,28.43,North,0,2.3,2.3,30,0.00,CLR,SKC,0.02,WeatherDisplay:10.37,2013-09-13 11:07:00,
2013-09-13 07:12:00,57.2,26.0,28.44,NW,315,10.4,10.4,30,0.00,CLR,SKC,0.02,WeatherDisplay:10.37,2013-09-13 11:12:00,
2013-09-13 07:17:00,57.4,26.2,28.44,NW,315,5.8,5.8,30,0.00,CLR,SKC,0.02,WeatherDisplay:10.37,2013-09-13 11:17:00,
2013-09-13 07:22:00,57.4,26.2,28.43,South,180,2.3,0.0,30,0.00,CLR,SKC,0.02,WeatherDisplay:10.37,2013-09-13 11:22:00,
2013-09-13 07:27:00,57.4,26.2,28.44,NNE,14,5.8,0.0,30,0.00,CLR,SKC,0.02,WeatherDisplay:10.37,2013-09-13 11:27:00,
2013-09-13 07:32:00,57.4,26.2,28.43,North,1,6.9,0.0,30,0.00,CLR,SKC,0.02,WeatherDisplay:10.37,2013-09-13 11:32:00,
2013-09-13 07:37:00,57.2,26.0,28.44,North,0,4.6,4.6,30,0.00,CLR,SKC,0.02,WeatherDisplay:10.37,2013-09-13 11:37:00,
2013-09-13 07:42:00,57.4,26.2,28.45,NW,315,9.2,9.2,30,0.00,CLR,SKC,0.02,WeatherDisplay:10.37,2013-09-13 11:42:00,
2013-09-13 07:47:00,57.6,26.3,28.45,North,0,8.1,8.1,30,0.00,CLR,SKC,0.02,WeatherDisplay:10.37,2013-09-13 11:47:00,
2013-09-13 07:52:00,57.7,26.5,28.45,NW,315,4.6,4.6,30,0.00,CLR,SKC,0.02,WeatherDisplay:10.37,2013-09-13 11:52:00,
2013-09-13 07:57:00,57.9,26.6,28.45,NW,315,8.1,8.1,30,0.00,CLR,SKC,0.02,WeatherDisplay:10.37,2013-09-13 11:57:00,
2013-09-13 08:02:00,57.9,26.6,28.45,NW,315,8.1,8.1,30,0.00,CLR,SKC,0.02,WeatherDisplay:10.37,2013-09-13 12:02:00,
2013-09-13 08:07:00,58.1,26.8,28.45,NW,315,8.1,8.1,30,0.00,CLR,SKC,0.02,WeatherDisplay:10.37,2013-09-13 12:07:00,
2013-09-13 08:12:00,58.3,26.9,28.45,West,270,5.8,5.8,30,0.00,CLR,SKC,0.02,WeatherDisplay:10.37,2013-09-13 12:12:00,
2013-09-13 08:17:00,58.1,26.8,28.45,NW,315,8.1,8.1,30,0.00,CLR,SKC,0.02,WeatherDisplay:10.37,2013-09-13 12:17:00,
2013-09-13 08:22:00,58.5,27.1,28.45,NW,315,4.6,4.6,30,0.00,CLR,SKC,0.02,WeatherDisplay:10.37,2013-09-13 12:22:00,
2013-09-13 08:27:00,58.8,27.4,28.45,NW,315,4.6,4.6,30,0.00,CLR,SKC,0.02,WeatherDisplay:10.37,2013-09-13 12:27:00,
2013-09-13 08:32:00,58.8,27.4,28.45,NW,315,8.1,8.1,30,0.00,CLR,SKC,0.02,WeatherDisplay:10.37,2013-09-13 12:32:00,
2013-09-13 08:37:00,58.8,27.4,28.45,NW,315,5.8,5.8,30,0.00,CLR,SKC,0.02,WeatherDisplay:10.37,2013-09-13 12:37:00,
2013-09-13 08:42:00,58.8,27.4,28.45,NNE,14,5.4,5.4,30,0.00,CLR,SKC,0.02,WeatherDisplay:10.37,2013-09-13 12:42:00,
2013-09-13 08:47:00,59.0,27.6,28.45,NW,315,0.0,0.0,30,0.00,CLR,SKC,0.02,WeatherDisplay:10.37,2013-09-13 12:47:00,
2013-09-13 08:52:00,59.0,27.6,28.45,NNE,15,5.8,5.8,30,0.00,CLR,SKC,0.02,WeatherDisplay:10.37,2013-09-13 12:52:00,
2013-09-13 08:57:00,59.2,27.7,28.46,NNE,14,2.3,2.3,30,0.00,CLR,SKC,0.02,WeatherDisplay:10.37,2013-09-13 12:57:00,
2013-09-13 09:02:00,59.2,27.7,28.45,North,0,2.3,0.0,30,0.00,CLR,SKC,0.02,WeatherDisplay:10.37,2013-09-13 13:02:00,
2013-09-13 09:07:00,59.2,27.7,28.45,North,0,2.3,0.0,30,0.00,CLR,SKC,0.02,WeatherDisplay:10.37,2013-09-13 13:07:00,
2013-09-13 09:12:00,59.4,27.9,28.46,South,180,4.6,4.6,30,0.00,CLR,SKC,0.02,WeatherDisplay:10.37,2013-09-13 13:12:00,
2013-09-13 09:17:00,59.4,27.9,28.46,NW,315,5.8,5.8,30,0.00,CLR,SKC,0.02,WeatherDisplay:10.37,2013-09-13 13:17:00,
2013-09-13 09:22:00,59.5,28.0,28.46,NW,315,5.8,5.8,30,0.00,CLR,SKC,0.02,WeatherDisplay:10.37,2013-09-13 13:22:00,
2013-09-13 09:27:00,59.7,28.2,28.46,NNE,14,5.8,5.8,30,0.00,CLR,SKC,0.02,WeatherDisplay:10.37,2013-09-13 13:27:00,
2013-09-13 09:32:00,59.5,28.0,28.46,North,0,6.9,6.9,30,0.00,CLR,SKC,0.02,WeatherDisplay:10.37,2013-09-13 13:32:00,
2013-09-13 09:37:00,59.5,28.0,28.46,NW,315,9.2,9.2,30,0.00,CLR,SKC,0.02,WeatherDisplay:10.37,2013-09-13 13:37:00,
2013-09-13 09:42:00,59.5,28.0,28.45,NW,315,5.8,5.8,30,0.00,CLR,SKC,0.02,WeatherDisplay:10.37,2013-09-13 13:42:00,
2013-09-13 09:47:00,60.1,28.5,28.45,NNE,15,8.1,8.1,30,0.00,CLR,SKC,0.02,WeatherDisplay:10.37,2013-09-13 13:47:00,
2013-09-13 09:52:00,60.4,28.8,28.46,NNE,14,10.4,10.4,30,0.00,CLR,SKC,0.02,WeatherDisplay:10.37,2013-09-13 13:52:00,
2013-09-13 09:57:00,60.8,29.1,28.46,NW,315,9.2,9.2,30,0.00,CLR,SKC,0.02,WeatherDisplay:10.37,2013-09-13 13:57:00,
2013-09-13 10:02:00,60.8,29.1,28.45,NNE,15,3.5,3.5,30,0.00,CLR,SKC,0.02,WeatherDisplay:10.37,2013-09-13 14:02:00,
2013-09-13 10:07:00,60.8,29.1,28.46,North,0,3.5,3.5,30,0.00,CLR,SKC,0.02,WeatherDisplay:10.37,2013-09-13 14:07:00,
2013-09-13 10:12:00,60.8,29.1,28.46,NW,315,10.4,10.4,30,0.00,CLR,SKC,0.02,WeatherDisplay:10.37,2013-09-13 14:12:00,
2013-09-13 10:17:00,60.8,29.1,28.46,NW,315,8.1,8.1,30,0.00,CLR,SKC,0.02,WeatherDisplay:10.37,2013-09-13 14:17:00,
2013-09-13 10:22:00,61.0,29.3,28.46,NNE,12,11.5,11.5,30,0.00,CLR,SKC,0.02,WeatherDisplay:10.37,2013-09-13 14:22:00,
2013-09-13 10:27:00,61.5,29.8,28.46,NW,315,13.8,13.8,30,0.00,CLR,SKC,0.02,WeatherDisplay:10.37,2013-09-13 14:27:00,
2013-09-13 10:32:00,61.9,30.1,28.46,NNE,14,1.6,0.0,30,0.00,CLR,SKC,0.02,WeatherDisplay:10.37,2013-09-13 14:32:00,
2013-09-13 10:37:00,61.5,29.8,28.46,NW,315,5.8,5.8,30,0.00,CLR,SKC,0.02,WeatherDisplay:10.37,2013-09-13 14:37:00,
2013-09-13 10:42:00,61.2,29.5,28.46,NW,315,10.4,10.4,30,0.00,CLR,SKC,0.02,WeatherDisplay:10.37,2013-09-13 14:42:00,
2013-09-13 10:47:00,62.1,30.2,28.46,SE,135,6.9,0.0,30,0.00,CLR,SKC,0.02,WeatherDisplay:10.37,2013-09-13 14:47:00,
2013-09-13 10:52:00,64.0,32.0,28.46,West,270,10.4,10.4,30,0.00,CLR,SKC,0.02,WeatherDisplay:10.37,2013-09-13 14:52:00,
2013-09-13 10:57:00,64.6,32.4,28.46,West,270,5.8,5.8,30,0.00,CLR,SKC,0.02,WeatherDisplay:10.37,2013-09-13 14:57:00,
2013-09-13 11:02:00,64.9,32.7,28.46,North,1,6.9,6.9,30,0.00,CLR,SKC,0.02,WeatherDisplay:10.37,2013-09-13 15:02:00,
2013-09-13 11:07:00,66.4,34.0,28.46,North,0,8.1,8.1,30,0.00,CLR,SKC,0.02,WeatherDisplay:10.37,2013-09-13 15:07:00,
2013-09-13 11:12:00,67.3,34.8,28.46,North,0,9.2,0.0,30,0.00,CLR,SKC,0.02,WeatherDisplay:10.37,2013-09-13 15:12:00,
2013-09-13 11:17:00,68.2,35.5,28.46,SE,135,5.8,5.8,30,0.00,CLR,SKC,0.02,WeatherDisplay:10.37,2013-09-13 15:17:00,
2013-09-13 11:22:00,66.2,33.8,28.46,West,270,9.2,9.2,30,0.00,CLR,SKC,0.02,WeatherDisplay:10.37,2013-09-13 15:22:00,
2013-09-13 11:27:00,64.4,32.3,28.46,NW,315,10.4,10.4,30,0.00,CLR,SKC,0.02,WeatherDisplay:10.37,2013-09-13 15:27:00,
2013-09-13 11:32:00,63.7,31.6,28.46,NNE,12,8.1,8.1,30,0.00,CLR,SKC,0.02,WeatherDisplay:10.37,2013-09-13 15:32:00,
2013-09-13 11:37:00,63.9,31.8,28.46,West,270,10.4,10.4,30,0.00,CLR,SKC,0.02,WeatherDisplay:10.37,2013-09-13 15:37:00,
2013-09-13 11:42:00,64.8,32.6,28.46,North,0,10.4,10.4,30,0.00,CLR,SKC,0.02,WeatherDisplay:10.37,2013-09-13 15:42:00,
2013-09-13 11:47:00,65.5,33.2,28.46,NW,315,10.7,10.7,30,0.00,CLR,SKC,0.02,WeatherDisplay:10.37,2013-09-13 15:47:00,
2013-09-13 11:52:00,64.6,32.4,28.46,NW,315,10.4,10.4,30,0.00,CLR,SKC,0.02,WeatherDisplay:10.37,2013-09-13 15:52:00,
2013-09-13 11:57:00,64.0,32.0,28.46,West,270,6.9,6.9,30,0.00,CLR,SKC,0.02,WeatherDisplay:10.37,2013-09-13 15:57:00,
2013-09-13 12:02:00,64.2,32.1,28.46,NW,315,10.4,10.4,30,0.00,CLR,SKC,0.02,WeatherDisplay:10.37,2013-09-13 16:02:00,
2013-09-13 12:07:00,64.2,32.1,28.45,NW,315,10.4,10.4,30,0.00,CLR,SKC,0.02,WeatherDisplay:10.37,2013-09-13 16:07:00,
2013-09-13 12:12:00,66.7,34.3,28.46,NNE,12,13.8,13.8,30,0.00,CLR,SKC,0.02,WeatherDisplay:10.37,2013-09-13 16:12:00,
2013-09-13 12:17:00,67.5,34.9,28.46,WNW,292,9.2,9.2,30,0.00,CLR,SKC,0.02,WeatherDisplay:10.37,2013-09-13 16:17:00,
2013-09-13 12:22:00,68.0,35.4,28.45,NNE,15,15.0,15.0,30,0.00,CLR,SKC,0.02,WeatherDisplay:10.37,2013-09-13 16:22:00,
2013-09-13 12:27:00,68.4,35.7,28.45,West,270,9.2,9.2,30,0.00,CLR,SKC,0.02,WeatherDisplay:10.37,2013-09-13 16:27:00,
2013-09-13 12:32:00,67.3,34.8,28.46,NNE,15,11.5,11.5,30,0.00,CLR,SKC,0.02,WeatherDisplay:10.37,2013-09-13 16:32:00,
2013-09-13 12:37:00,65.8,33.5,28.46,North,0,8.1,8.1,30,0.00,CLR,SKC,0.02,WeatherDisplay:10.37,2013-09-13 16:37:00,
2013-09-13 12:42:00,64.8,32.6,28.46,NW,315,11.5,11.5,30,0.00,CLR,SKC,0.02,WeatherDisplay:10.37,2013-09-13 16:42:00,
2013-09-13 12:47:00,66.4,34.0,28.45,NW,315,12.7,12.7,30,0.00,CLR,SKC,0.02,WeatherDisplay:10.37,2013-09-13 16:47:00,
2013-09-13 12:52:00,66.2,33.8,28.46,North,0,10.4,10.4,30,0.00,CLR,SKC,0.02,WeatherDisplay:10.37,2013-09-13 16:52:00,
2013-09-13 12:57:00,65.7,33.4,28.46,NE,45,11.5,11.5,30,0.00,CLR,SKC,0.02,WeatherDisplay:10.37,2013-09-13 16:57:00,
2013-09-13 13:02:00,65.3,33.0,28.46,North,0,10.4,10.4,30,0.00,CLR,SKC,0.02,WeatherDisplay:10.37,2013-09-13 17:02:00,
2013-09-13 13:07:00,66.9,34.5,28.45,NW,315,10.4,10.4,30,0.00,CLR,SKC,0.02,WeatherDisplay:10.37,2013-09-13 17:07:00,
2013-09-13 13:12:00,66.7,34.3,28.45,North,0,13.8,13.8,30,0.00,CLR,SKC,0.02,WeatherDisplay:10.37,2013-09-13 17:12:00,
2013-09-13 13:17:00,66.6,34.1,28.46,NW,315,11.5,11.5,30,0.00,CLR,SKC,0.02,WeatherDisplay:10.37,2013-09-13 17:17:00,
2013-09-13 13:22:00,67.1,34.6,28.46,North,0,17.3,17.3,30,0.00,CLR,SKC,0.02,WeatherDisplay:10.37,2013-09-13 17:22:00,
2013-09-13 13:27:00,64.8,32.6,28.46,NE,45,19.6,19.6,30,0.00,CLR,SKC,0.02,WeatherDisplay:10.37,2013-09-13 17:27:00,
2013-09-13 13:32:00,65.5,33.2,28.46,NW,315,16.8,16.8,30,0.00,CLR,SKC,0.02,WeatherDisplay:10.37,2013-09-13 17:32:00,
2013-09-13 13:37:00,64.4,32.3,28.46,NW,315,12.7,12.7,30,0.00,CLR,SKC,0.02,WeatherDisplay:10.37,2013-09-13 17:37:00,
2013-09-13 13:42:00,64.4,32.3,28.46,West,270,12.7,12.7,30,0.00,CLR,SKC,0.02,WeatherDisplay:10.37,2013-09-13 17:42:00,
2013-09-13 13:47:00,63.9,31.8,28.46,NE,45,10.4,10.4,30,0.00,CLR,SKC,0.02,WeatherDisplay:10.37,2013-09-13 17:47:00,
2013-09-13 13:52:00,63.7,31.6,28.46,NW,315,8.1,8.1,30,0.00,CLR,SKC,0.02,WeatherDisplay:10.37,2013-09-13 17:52:00,
2013-09-13 13:57:00,62.6,30.7,28.47,NW,315,17.3,17.3,30,0.00,CLR,SKC,0.02,WeatherDisplay:10.37,2013-09-13 17:57:00,
2013-09-13 14:02:00,61.0,29.3,28.47,NW,315,15.0,15.0,30,0.00,CLR,SKC,0.02,WeatherDisplay:10.37,2013-09-13 18:02:00,
2013-09-13 14:07:00,59.0,27.6,28.48,NW,315,15.0,15.0,30,0.00,CLR,SKC,0.04,WeatherDisplay:10.37,2013-09-13 18:07:00,
2013-09-13 14:12:00,58.6,27.3,28.47,NW,315,10.4,10.4,30,0.02,RA,SKC,0.05,WeatherDisplay:10.37,2013-09-13 18:12:00,
2013-09-13 14:17:00,58.5,27.1,28.48,NW,315,11.5,11.5,30,0.04,RA,SKC,0.06,WeatherDisplay:10.37,2013-09-13 18:17:00,
2013-09-13 14:22:00,58.6,27.3,28.48,West,270,10.4,10.4,30,0.04,RA,SKC,0.06,WeatherDisplay:10.37,2013-09-13 18:22:00,
2013-09-13 14:27:00,59.0,27.6,28.48,NNE,15,10.4,10.4,30,0.04,,SKC,0.06,WeatherDisplay:10.37,2013-09-13 18:27:00,
2013-09-13 14:32:00,58.8,27.4,28.48,NNE,13,11.5,11.5,30,0.04,CLR,SKC,0.06,WeatherDisplay:10.37,2013-09-13 18:32:00,
2013-09-13 14:37:00,58.3,26.9,28.48,North,0,10.4,10.4,30,0.04,CLR,SKC,0.06,WeatherDisplay:10.37,2013-09-13 18:37:00,
2013-09-13 14:42:00,58.1,26.8,28.48,NW,315,11.5,11.5,30,0.04,CLR,SKC,0.06,WeatherDisplay:10.37,2013-09-13 18:42:00,
2013-09-13 14:47:00,57.9,26.6,28.48,NW,315,8.1,8.1,30,0.04,CLR,SKC,0.06,WeatherDisplay:10.37,2013-09-13 18:47:00,
2013-09-13 14:52:00,58.3,26.9,28.48,NW,315,8.1,8.1,30,0.04,CLR,SKC,0.06,WeatherDisplay:10.37,2013-09-13 18:52:00,
2013-09-13 14:57:00,58.1,26.8,28.49,NW,315,9.2,9.2,30,0.04,CLR,SKC,0.06,WeatherDisplay:10.37,2013-09-13 18:57:00,
2013-09-13 15:02:00,57.9,26.6,28.49,NW,315,12.7,12.7,30,0.04,CLR,SKC,0.06,WeatherDisplay:10.37,2013-09-13 19:02:00,
2013-09-13 15:07:00,57.9,26.6,28.49,NW,315,12.7,12.7,30,0.04,CLR,SKC,0.06,WeatherDisplay:10.37,2013-09-13 19:07:00,
2013-09-13 15:12:00,56.7,25.5,28.49,West,270,9.2,9.2,30,0.01,CLR,SKC,0.06,WeatherDisplay:10.37,2013-09-13 19:12:00,
2013-09-13 15:17:00,56.5,25.4,28.49,NW,315,8.1,8.1,30,0.00,CLR,SKC,0.06,WeatherDisplay:10.37,2013-09-13 19:17:00,
2013-09-13 15:22:00,56.8,25.7,28.49,West,270,6.0,6.0,30,0.00,CLR,SKC,0.06,WeatherDisplay:10.37,2013-09-13 19:22:00,
2013-09-13 15:27:00,57.0,25.9,28.49,NW,315,8.1,8.1,30,0.00,CLR,SKC,0.06,WeatherDisplay:10.37,2013-09-13 19:27:00,
2013-09-13 15:32:00,57.6,26.3,28.49,West,270,8.1,8.1,30,0.00,CLR,SKC,0.06,WeatherDisplay:10.37,2013-09-13 19:32:00,
2013-09-13 15:37:00,57.9,26.6,28.49,NNE,12,8.1,8.1,30,0.00,CLR,SKC,0.06,WeatherDisplay:10.37,2013-09-13 19:37:00,
2013-09-13 15:42:00,58.8,27.4,28.49,NW,315,8.1,8.1,30,0.00,CLR,SKC,0.06,WeatherDisplay:10.37,2013-09-13 19:42:00,
2013-09-13 15:47:00,59.5,28.0,28.49,NNE,12,4.6,4.6,30,0.00,CLR,SKC,0.06,WeatherDisplay:10.37,2013-09-13 19:47:00,
2013-09-13 15:52:00,60.3,28.7,28.49,NW,315,5.8,0.0,30,0.00,CLR,SKC,0.06,WeatherDisplay:10.37,2013-09-13 19:52:00,
2013-09-13 15:57:00,60.4,28.8,28.49,North,1,5.8,5.8,30,0.00,CLR,SKC,0.06,WeatherDisplay:10.37,2013-09-13 19:57:00,
2013-09-13 16:02:00,60.6,29.0,28.49,NW,315,3.5,3.5,30,0.00,CLR,SKC,0.06,WeatherDisplay:10.37,2013-09-13 20:02:00,
2013-09-13 16:07:00,60.6,29.0,28.49,NW,315,3.5,3.5,30,0.00,CLR,SKC,0.06,WeatherDisplay:10.37,2013-09-13 20:07:00,
2013-09-13 16:12:00,60.6,29.0,28.49,NW,315,5.8,5.8,30,0.00,CLR,SKC,0.06,WeatherDisplay:10.37,2013-09-13 20:12:00,
2013-09-13 16:17:00,60.4,28.8,28.49,NW,315,5.8,5.8,30,0.00,CLR,SKC,0.06,WeatherDisplay:10.37,2013-09-13 20:17:00,
2013-09-13 16:22:00,60.4,28.8,28.49,NW,315,5.8,5.8,30,0.00,CLR,SKC,0.06,WeatherDisplay:10.37,2013-09-13 20:22:00,
2013-09-13 16:27:00,60.4,28.8,28.49,NW,315,10.4,10.4,30,0.00,CLR,SKC,0.06,WeatherDisplay:10.37,2013-09-13 20:27:00,
2013-09-13 16:32:00,60.6,29.0,28.50,NW,315,9.2,9.2,30,0.00,CLR,SKC,0.06,WeatherDisplay:10.37,2013-09-13 20:32:00,
2013-09-13 16:37:00,60.8,29.1,28.49,NW,315,10.4,10.4,30,0.00,CLR,SKC,0.06,WeatherDisplay:10.37,2013-09-13 20:37:00,
2013-09-13 16:42:00,61.0,29.3,28.49,South,180,8.1,8.1,30,0.00,CLR,SKC,0.06,WeatherDisplay:10.37,2013-09-13 20:42:00,
2013-09-13 16:47:00,61.2,29.5,28.50,NW,315,6.9,6.9,30,0.00,CLR,SKC,0.06,WeatherDisplay:10.37,2013-09-13 20:47:00,
2013-09-13 16:52:00,61.3,29.6,28.50,NW,315,8.1,8.1,30,0.00,CLR,SKC,0.06,WeatherDisplay:10.37,2013-09-13 20:52:00,
2013-09-13 16:57:00,61.3,29.6,28.50,NNE,14,0.0,0.0,30,0.00,CLR,SKC,0.06,WeatherDisplay:10.37,2013-09-13 20:57:00,
2013-09-13 17:02:00,61.5,29.8,28.50,North,0,8.1,8.1,30,0.00,CLR,SKC,0.06,WeatherDisplay:10.37,2013-09-13 21:02:00,
2013-09-13 17:07:00,61.2,29.5,28.50,West,270,8.1,8.1,30,0.00,CLR,SKC,0.06,WeatherDisplay:10.37,2013-09-13 21:07:00,
2013-09-13 17:12:00,61.0,29.3,28.50,North,1,5.8,5.8,30,0.00,CLR,SKC,0.06,WeatherDisplay:10.37,2013-09-13 21:12:00,
2013-09-13 17:17:00,60.6,29.0,28.50,West,270,16.1,16.1,30,0.01,RA,SKC,0.07,WeatherDisplay:10.37,2013-09-13 21:17:00,
2013-09-13 17:22:00,60.6,29.0,28.50,NW,315,16.1,16.1,30,0.01,RA,SKC,0.07,WeatherDisplay:10.37,2013-09-13 21:22:00,
2013-09-13 17:27:00,60.3,28.7,28.51,NW,315,12.7,12.7,30,0.01,CLR,SKC,0.07,WeatherDisplay:10.37,2013-09-13 21:27:00,
2013-09-13 17:32:00,59.9,28.4,28.51,NW,315,15.0,15.0,30,0.01,CLR,SKC,0.07,WeatherDisplay:10.37,2013-09-13 21:32:00,
2013-09-13 17:37:00,59.7,28.2,28.50,NW,315,8.1,8.1,30,0.01,CLR,SKC,0.07,WeatherDisplay:10.37,2013-09-13 21:37:00,
2013-09-13 17:42:00,59.7,28.2,28.51,West,270,8.1,8.1,30,0.01,CLR,SKC,0.07,WeatherDisplay:10.37,2013-09-13 21:42:00,
2013-09-13 17:47:00,59.9,28.4,28.51,West,270,10.4,10.4,30,0.01,CLR,SKC,0.07,WeatherDisplay:10.37,2013-09-13 21:47:00,
2013-09-13 17:52:00,59.9,28.4,28.51,NW,315,9.2,9.2,30,0.01,CLR,SKC,0.07,WeatherDisplay:10.37,2013-09-13 21:52:00,
2013-09-13 17:57:00,60.1,28.5,28.51,NW,315,8.1,8.1,30,0.01,CLR,SKC,0.07,WeatherDisplay:10.37,2013-09-13 21:57:00,
2013-09-13 18:02:00,60.1,28.5,28.51,North,0,8.1,8.1,30,0.01,CLR,SKC,0.07,WeatherDisplay:10.37,2013-09-13 22:02:00,
2013-09-13 18:07:00,60.1,30.1,28.52,NW,315,12.7,12.7,32,0.01,CLR,SKC,0.07,WeatherDisplay:10.37,2013-09-13 22:07:00,
2013-09-13 18:12:00,59.7,31.3,28.52,West,270,19.6,19.6,34,0.01,CLR,SKC,0.07,WeatherDisplay:10.37,2013-09-13 22:12:00,
2013-09-13 18:17:00,59.4,32.4,28.52,NW,315,10.4,11.4,36,0.00,CLR,SKC,0.07,WeatherDisplay:10.37,2013-09-13 22:17:00,
2013-09-13 18:22:00,59.4,33.7,28.52,NW,315,15.0,15.0,38,0.00,CLR,SKC,0.07,WeatherDisplay:10.37,2013-09-13 22:22:00,
2013-09-13 18:27:00,59.2,34.2,28.53,NW,315,10.4,10.4,39,0.00,CLR,SKC,0.07,WeatherDisplay:10.37,2013-09-13 22:27:00,
2013-09-13 18:32:00,58.8,34.5,28.53,NW,315,13.8,13.8,40,0.00,CLR,SKC,0.07,WeatherDisplay:10.37,2013-09-13 22:32:00,
2013-09-13 18:37:00,58.5,34.8,28.53,West,270,10.4,10.4,41,0.00,CLR,SKC,0.07,WeatherDisplay:10.37,2013-09-13 22:37:00,
2013-09-13 18:42:00,58.1,36.3,28.53,WNW,292,8.1,8.1,44,0.00,CLR,SKC,0.07,WeatherDisplay:10.37,2013-09-13 22:42:00,
2013-09-13 18:47:00,57.9,36.7,28.53,NW,315,12.7,12.7,45,0.00,CLR,SKC,0.07,WeatherDisplay:10.37,2013-09-13 22:47:00,
2013-09-13 18:52:00,57.7,37.1,28.53,West,270,11.5,11.5,46,0.00,CLR,SKC,0.07,WeatherDisplay:10.37,2013-09-13 22:52:00,
2013-09-13 18:57:00,57.6,38.0,28.53,NW,315,10.4,10.4,48,0.00,CLR,SKC,0.07,WeatherDisplay:10.37,2013-09-13 22:57:00,
2013-09-13 19:02:00,57.4,38.4,28.53,NW,315,8.1,8.1,49,0.00,CLR,SKC,0.07,WeatherDisplay:10.37,2013-09-13 23:02:00,
2013-09-13 19:07:00,57.2,39.2,28.53,NNE,14,8.1,8.1,51,0.00,CLR,SKC,0.07,WeatherDisplay:10.37,2013-09-13 23:07:00,
2013-09-13 19:12:00,56.8,39.9,28.53,NW,315,10.4,10.4,53,0.00,CLR,SKC,0.07,WeatherDisplay:10.37,2013-09-13 23:12:00,
2013-09-13 19:17:00,56.7,40.2,28.53,NW,315,9.2,9.2,54,0.00,CLR,SKC,0.07,WeatherDisplay:10.37,2013-09-13 23:17:00,
2013-09-13 19:22:00,56.5,41.0,28.53,NW,315,12.7,12.7,56,0.00,CLR,SKC,0.07,WeatherDisplay:10.37,2013-09-13 23:22:00,
2013-09-13 19:27:00,56.3,41.3,28.54,NW,315,10.4,10.4,57,0.00,CLR,SKC,0.07,WeatherDisplay:10.37,2013-09-13 23:27:00,
2013-09-13 19:32:00,55.9,41.8,28.53,NW,315,8.1,8.1,59,0.00,CLR,SKC,0.07,WeatherDisplay:10.37,2013-09-13 23:32:00,
2013-09-13 19:37:00,55.8,42.1,28.54,NW,315,10.4,10.4,60,0.00,CLR,SKC,0.07,WeatherDisplay:10.37,2013-09-13 23:37:00,
2013-09-13 19:42:00,55.6,43.2,28.54,NW,315,6.9,6.9,63,0.00,CLR,SKC,0.07,WeatherDisplay:10.37,2013-09-13 23:42:00,
2013-09-13 19:47:00,55.2,43.2,28.54,NW,315,8.1,8.1,64,0.00,CLR,SKC,0.07,WeatherDisplay:10.37,2013-09-13 23:47:00,
2013-09-13 19:52:00,55.2,43.7,28.54,NNE,14,9.2,9.2,65,0.00,CLR,SKC,0.07,WeatherDisplay:10.37,2013-09-13 23:52:00,
2013-09-13 19:57:00,54.9,43.7,28.55,NW,315,10.4,10.4,66,0.00,CLR,SKC,0.07,WeatherDisplay:10.37,2013-09-13 23:57:00,
2013-09-13 20:02:00,54.9,44.1,28.55,NW,315,6.9,6.9,67,0.00,CLR,SKC,0.07,WeatherDisplay:10.37,2013-09-14 00:02:00,
2013-09-13 20:07:00,54.7,43.9,28.55,NW,315,8.1,8.1,67,0.00,CLR,SKC,0.07,WeatherDisplay:10.37,2013-09-14 00:07:00,
2013-09-13 20:12:00,54.5,44.2,28.56,NW,315,6.9,6.9,68,0.00,CLR,SKC,0.07,WeatherDisplay:10.37,2013-09-14 00:12:00,
2013-09-13 20:17:00,54.5,44.2,28.56,West,270,6.9,6.9,68,0.00,CLR,SKC,0.07,WeatherDisplay:10.37,2013-09-14 00:17:00,
2013-09-13 20:22:00,54.5,44.5,28.56,NNW,338,8.1,8.1,69,0.00,CLR,SKC,0.07,WeatherDisplay:10.37,2013-09-14 00:22:00,
2013-09-13 20:27:00,54.3,44.7,28.56,NNE,15,5.8,5.8,70,0.00,CLR,SKC,0.07,WeatherDisplay:10.37,2013-09-14 00:27:00,
2013-09-13 20:32:00,54.1,44.9,28.56,NW,315,9.2,9.2,71,0.00,CLR,SKC,0.07,WeatherDisplay:10.37,2013-09-14 00:32:00,
2013-09-13 20:37:00,54.0,45.1,28.57,NW,315,8.1,8.1,72,0.00,CLR,SKC,0.07,WeatherDisplay:10.37,2013-09-14 00:37:00,
2013-09-13 20:42:00,53.8,45.3,28.56,NW,315,4.6,4.6,73,0.00,CLR,SKC,0.07,WeatherDisplay:10.37,2013-09-14 00:42:00,
2013-09-13 20:47:00,53.6,45.2,28.57,NNW,338,5.8,5.8,73,0.00,CLR,SKC,0.07,WeatherDisplay:10.37,2013-09-14 00:47:00,
2013-09-13 20:52:00,53.6,45.5,28.57,NNE,14,5.8,5.8,74,0.00,CLR,SKC,0.07,WeatherDisplay:10.37,2013-09-14 00:52:00,
2013-09-13 20:57:00,53.4,45.3,28.57,NW,315,5.8,5.8,74,0.00,CLR,SKC,0.07,WeatherDisplay:10.37,2013-09-14 00:57:00,
2013-09-13 21:02:00,53.2,45.2,28.57,West,270,5.8,5.8,74,0.00,CLR,SKC,0.07,WeatherDisplay:10.37,2013-09-14 01:02:00,
2013-09-13 21:07:00,53.1,45.3,28.57,NW,315,9.2,9.2,75,0.00,CLR,SKC,0.07,WeatherDisplay:10.37,2013-09-14 01:07:00,
2013-09-13 21:12:00,53.1,45.7,28.58,NW,315,5.8,5.8,76,0.00,CLR,SKC,0.07,WeatherDisplay:10.37,2013-09-14 01:12:00,
2013-09-13 21:17:00,52.9,45.5,28.58,NW,315,3.5,3.5,76,0.00,CLR,SKC,0.07,WeatherDisplay:10.37,2013-09-14 01:17:00,
2013-09-13 21:22:00,52.5,45.9,28.58,NNE,14,3.5,3.5,78,0.00,CLR,SKC,0.07,WeatherDisplay:10.37,2013-09-14 01:22:00,
2013-09-13 21:27:00,52.3,45.7,28.58,NNE,14,5.8,5.8,78,0.00,CLR,SKC,0.07,WeatherDisplay:10.37,2013-09-14 01:27:00,
2013-09-13 21:32:00,52.5,45.9,28.58,NW,315,4.6,4.6,78,0.00,CLR,SKC,0.07,WeatherDisplay:10.37,2013-09-14 01:32:00,
2013-09-13 21:37:00,52.5,45.9,28.58,NW,315,9.2,9.2,78,0.00,CLR,SKC,0.07,WeatherDisplay:10.37,2013-09-14 01:37:00,
2013-09-13 21:42:00,52.5,45.9,28.58,NNE,15,5.8,5.8,78,0.00,CLR,SKC,0.07,WeatherDisplay:10.37,2013-09-14 01:42:00,
2013-09-13 21:47:00,52.5,46.2,28.58,NW,315,3.5,3.5,79,0.00,CLR,SKC,0.07,WeatherDisplay:10.37,2013-09-14 01:47:00,
2013-09-13 21:52:00,52.3,46.4,28.58,NW,315,5.8,5.8,80,0.00,CLR,SKC,0.07,WeatherDisplay:10.37,2013-09-14 01:52:00,
2013-09-13 21:57:00,52.3,46.4,28.59,NW,315,8.1,8.1,80,0.00,CLR,SKC,0.07,WeatherDisplay:10.37,2013-09-14 01:57:00,
2013-09-13 22:02:00,52.2,46.5,28.58,NW,315,3.5,3.5,81,0.00,CLR,SKC,0.07,WeatherDisplay:10.37,2013-09-14 02:02:00,
2013-09-13 22:07:00,52.2,46.5,28.59,NW,315,3.5,3.5,81,0.00,CLR,SKC,0.07,WeatherDisplay:10.37,2013-09-14 02:07:00,
2013-09-13 22:12:00,52.0,46.7,28.59,NW,315,8.1,8.1,82,0.00,CLR,SKC,0.07,WeatherDisplay:10.37,2013-09-14 02:12:00,
2013-09-13 22:17:00,51.8,46.5,28.59,NW,315,4.6,4.6,82,0.00,CLR,SKC,0.07,WeatherDisplay:10.37,2013-09-14 02:17:00,
2013-09-13 22:22:00,51.8,46.5,28.59,NW,315,5.8,5.8,82,0.00,CLR,SKC,0.07,WeatherDisplay:10.37,2013-09-14 02:22:00,
2013-09-13 22:27:00,51.6,46.3,28.59,North,0,4.6,0.0,82,0.00,CLR,SKC,0.07,WeatherDisplay:10.37,2013-09-14 02:27:00,
2013-09-13 22:32:00,51.6,46.3,28.59,NW,315,4.6,4.6,82,0.00,CLR,SKC,0.07,WeatherDisplay:10.37,2013-09-14 02:32:00,
2013-09-13 22:37:00,51.6,46.3,28.60,North,0,0.0,0.7,82,0.00,CLR,SKC,0.07,WeatherDisplay:10.37,2013-09-14 02:37:00,
2013-09-13 22:42:00,51.4,46.4,28.60,NW,315,4.5,4.5,83,0.00,CLR,SKC,0.07,WeatherDisplay:10.37,2013-09-14 02:42:00,
2013-09-13 22:47:00,51.6,46.6,28.59,North,0,3.5,0.0,83,0.00,CLR,SKC,0.07,WeatherDisplay:10.37,2013-09-14 02:47:00,
2013-09-13 22:52:00,51.4,46.4,28.59,NE,45,3.5,0.0,83,0.00,CLR,SKC,0.07,WeatherDisplay:10.37,2013-09-14 02:52:00,
2013-09-13 22:57:00,51.4,46.4,28.60,West,270,4.6,4.6,83,0.00,CLR,SKC,0.07,WeatherDisplay:10.37,2013-09-14 02:57:00,
2013-09-13 23:02:00,51.4,46.4,28.59,NW,315,3.5,3.5,83,0.00,CLR,SKC,0.07,WeatherDisplay:10.37,2013-09-14 03:02:00,
2013-09-13 23:07:00,51.3,46.3,28.60,North,0,3.5,3.5,83,0.00,CLR,SKC,0.07,WeatherDisplay:10.37,2013-09-14 03:07:00,
2013-09-13 23:12:00,51.3,46.3,28.59,NW,315,2.3,2.3,83,0.00,CLR,SKC,0.07,WeatherDisplay:10.37,2013-09-14 03:12:00,
2013-09-13 23:17:00,51.3,46.3,28.60,NNE,15,3.5,3.5,83,0.00,CLR,SKC,0.07,WeatherDisplay:10.37,2013-09-14 03:17:00,
2013-09-13 23:22:00,51.1,46.1,28.60,NW,315,3.5,3.5,83,0.00,CLR,SKC,0.07,WeatherDisplay:10.37,2013-09-14 03:22:00,
2013-09-13 23:27:00,51.1,46.1,28.60,NW,315,3.5,3.5,83,0.00,CLR,SKC,0.07,WeatherDisplay:10.37,2013-09-14 03:27:00,
2013-09-13 23:32:00,51.1,46.1,28.59,NW,315,3.5,3.5,83,0.00,CLR,SKC,0.07,WeatherDisplay:10.37,2013-09-14 03:32:00,
2013-09-13 23:37:00,51.1,46.1,28.59,North,0,3.5,3.5,83,0.00,CLR,SKC,0.07,WeatherDisplay:10.37,2013-09-14 03:37:00,
2013-09-13 23:42:00,51.1,46.1,28.59,North,0,3.5,3.5,83,0.00,CLR,SKC,0.07,WeatherDisplay:10.37,2013-09-14 03:42:00,
2013-09-13 23:47:00,51.1,46.1,28.60,NW,315,3.5,3.5,83,0.00,CLR,SKC,0.07,WeatherDisplay:10.37,2013-09-14 03:47:00,
2013-09-13 23:52:00,51.1,46.1,28.60,NE,45,3.5,3.5,83,0.00,CLR,SKC,0.07,WeatherDisplay:10.37,2013-09-14 03:52:00,
2013-09-13 23:57:00,51.1,46.1,28.60,North,0,4.6,4.6,83,0.00,CLR,SKC,0.07,WeatherDisplay:10.37,2013-09-14 03:57:00,